Other Public Products
Issued by NWS Grand Forks, ND

Home | Current Version | Previous Version | Text Only | Print | Product List | Glossary Off
Versions: 1 2 3 4 5 6 7 8 9 10 11 12 13 14 15 16 17 18 19 20 21 22 23 24 25 26 27 28 29 30 31 32 33 34 35 36 37 38 39 40 41 42 43 44 45 46 47 48 49 50

000
FPUS83 KFGF 122231
OPUFGF
PRAIRIE TO PINES WEATHER ROUNDUP
NATIONAL WEATHER SERVICE EASTERN NORTH DAKOTA/GRAND FORKS ND
500 PM CDT SAT JUL 12 2014

 **SATELLITE DATA USED TO AUGMENT SKY COVER AT AUTOMATED STATIONS**
 *****  WEATHER ACROSS EASTERN NORTH DAKOTA  *****

CITY           SKY/WX    TMP DP  RH WIND       PRES   REMARKS
GRAND FORKS    MOSUNNY   80  55  42 W17G29    29.89F
GRAND FORKS AF NOT AVBL
GRAND CITY NWS   N/A     81 N/A N/A W23         N/A
BUXTON           N/A     81  59  45 W14         N/A
DEVILS LAKE    SUNNY     79  52  38 W23G29    29.92F
FARGO          MOSUNNY   81  58  45 W18       29.93F
WAHPETON ARPT  PTCLDY    79  55  44 W15       29.96F
$$

 *****  WEATHER ACROSS CENTRAL AND WESTERN NORTH DAKOTA  *****

CITY           SKY/WX    TMP DP  RH WIND       PRES   REMARKS
JAMESTOWN      MOSUNNY   80  58  46 W17G26    29.98F
BISMARCK       PTSUNNY   81  57  43 NW18      30.03F
MINOT          SUNNY     80  50  34 W22G29    30.00F
MINOT AFB      NOT AVBL
GARRISON         N/A     78  55  44 NW21G31   30.04F
WILLISTON      SUNNY     84  47  27 NW24G31   30.08S
DICKINSON      PTSUNNY   80  57  45 NW13      30.09S
HETTINGER      MOSUNNY   81  57  43 NW14      30.13S
$$

 *****  OTHER OBSERVATIONS NORTHEAST NORTH DAKOTA  *****

CITY           SKY/WX    TMP DP  RH WIND       PRES   REMARKS
WALHALLA         N/A     59  59 100 NW13G18     N/A
LANGDON        MOCLDY    66  54  63 N24G41    29.95R
CAVALIER       FAIR      77  54  44 W24G35    29.88R
GRAFTON        FAIR      79  55  44 W20G30    29.87F
CANDO          FAIR      77  54  44 W25G35    29.92F
FORT TOTTEN      N/A     79  56  45 NW8       29.95S
ROLLA          LGT RAIN  59  59 100 NW18G30   29.97R
RUGBY          FAIR      75  54  46 W23G31    29.93F
 ***** THE ABOVE OBSERVATIONS ARE NON NWS ARE NOT QUALITY
        CONTROLLED AND MAY MIS-REPORT RAIN FOR SNOW...
$$

 *****  OTHER OBSERVATIONS SOUTHEAST NORTH DAKOTA *****

CITY           SKY/WX    TMP DP  RH WIND       PRES   REMARKS
COOPERSTOWN    NOT AVBL
VALLEY CITY    FAIR      81  57  44 W18G32    29.96F
OAKES          NOT AVBL
GWINNER        PTCLDY    81  59  47 NW14      29.99F
SHEYENNE NWR     N/A     81  61  49 W12       29.95
BUFFALO          N/A     82  50  32 W16         N/A
WYNDMERE       NOT AVBL
 ***** THE ABOVE OBSERVATIONS ARE NON NWS ARE NOT QUALITY
       CONTROLLED AND MAY MIS-REPORT RAIN FOR SNOW...
$$

  *****  WEATHER ACROSS NORTHERN MINNESOTA  *****

CITY           SKY/WX    TMP DP  RH WIND       PRES   REMARKS
FLAG ISLAND      N/A     75  52  43 W23G30    29.79F
WARROAD        SUNNY     77  57  50 W17G32    29.85S
ROSEAU         SUNNY     77  55  47 W17G28    29.85S
HALLOCK        SUNNY     79  50  36 NW21G31   29.86R
THF RVR FALLS  MOSUNNY   75  55  50 W16       29.90F
HALSTAD          N/A     78  54  42 W13         N/A
FOSSTON        PTSUNNY   75  55  50 W13G20    29.93F
BAUDETTE       MOSUNNY   76  54  46 VRB7G18   29.87S
WASKISH        MOSUNNY   75  61  60 SW16G22   29.89F
CROOKSTON      SUNNY     79  55  44 W21       29.90F
$$
  *****  WEATHER ACROSS CENTRAL AND WEST MINNESOTA  *****

CITY           SKY/WX    TMP DP  RH WIND       PRES   REMARKS
BEMIDJI        MOSUNNY   74  55  50 SW14      29.92F
PARK RAPIDS    PTSUNNY   75  57  53 W16       29.95F
WADENA         PTSUNNY   73  59  60 W10G16    29.95F
DETROIT LAKES  MOSUNNY   75  57  53 W12       29.97F
MOORHEAD       MOSUNNY   81  55  41 W16G23    29.94F
FERGUS FALLS   MOSUNNY   79  54  41 W14       29.96F
ELBOW LAKE     FAIR      75  61  60 W14       29.98F
MORRIS MN      MOSUNNY   77  63  61 NW10      29.98S
STAPLES        CLOUDY    72  57  60 W12       29.95F
WHEATON        SUNNY     75  61  60 W12       30.00S
$$
  *****  WEATHER ELSEWHERE ACROSS MINNESOTA  *****

CITY           SKY/WX    TMP DP  RH WIND       PRES   REMARKS
DULUTH         CLOUDY    73  58  59 SW8       29.92F
INTRNTL FALLS  PTSUNNY   73  56  54 SW10G20   29.85F
ELY            PTSUNNY   73  55  53 W10       29.88F
CLOQUET        CLOUDY    72  55  56 W8        29.92F
BRAINERD       CLOUDY    78  58  49 W16       29.94F
HIBBING        CLOUDY    75  57  53 W8        29.90F
ALEXANDRIA     CLOUDY    73  60  63 W9        29.99F
SAINT CLOUD    CLOUDY    74  62  66 W9        29.95F
MINNEAPOLIS    CLOUDY    72  68  87 W6        29.94F
$$

  *****  WEATHER ACROSS SOUTH DAKOTA  *****

CITY           SKY/WX    TMP DP  RH WIND       PRES   REMARKS
SIOUX FALLS    MOSUNNY   81  66  60 NW6       30.01S
BROOKINGS      NOT AVBL
WATERTOWN      MOSUNNY   76  64  66 W9        30.04S
HURON          SUNNY     79  66  64 W7        30.03F
SISSETON         N/A     80  59  48 NW12      29.99S
ABERDEEN       MOSUNNY   80  61  52 W10G18    30.02F
MITCHELL       PTSUNNY   82  66  58 CALM      30.03S
PIERRE         MOSUNNY   80  63  55 N10       30.07S
MOBRIDGE       SUNNY     80  65  59 W8        30.04F
RAPID CITY     MOSUNNY   77  63  61 CALM      30.16S
$$

  *****  SOME WEATHER IN NEARBY STATES *****

CITY           SKY/WX    TMP DP  RH WIND       PRES   REMARKS
GLASGOW MT     NOT AVBL
GREAT FALLS MT SUNNY     86  39  19 CALM      30.21S
CHEYENNE WY    MOSUNNY   76  51  41 N9        30.33R
SCOTTSBLUFF NE MOSUNNY   81  61  50 VRB3      30.20F
OMAHA NE       PTSUNNY   81  71  71 N13       29.98R
DES MOINES IA  PTSUNNY   89  76  65 N10       29.92F HX 100
DAVENPORT IA   PTSUNNY   85  75  72 S10       29.93F HX  93
CHICAGO IL     CLOUDY    79  70  74 SW12      29.95F
EAU CLAIRE WI  LGT RAIN  68  66  93 N6        29.96F
LA CROSSE WI   LGT RAIN  68  66  93 N6        29.97F FOG
$$

  *****  SOME NATIONAL WEATHER *****

CITY           SKY/WX    TMP DP  RH WIND       PRES   REMARKS
LA GUARDIA NY  MOSUNNY   79  60  52 S14G22    30.15F
RALEIGH NC     MOSUNNY   88  64  44 S8        30.16F
ATLANTA GA     MOSUNNY   89  63  41 SE3       30.14F HX  90
NEW ORLEANS LA MOSUNNY   91  70  49 NE6       30.06F HX  96
OKLAHOMA CITY  SUNNY     94  56  27 S16       30.05F HX  92
ALBUQUERQUE NM MOSUNNY   88  52  29 CALM      30.16F
SALT LAKE CITY MOSUNNY   92  52  25 NW10      30.13F
LOS ANGELES CA PTSUNNY   75  61  61 W13       29.98F
BOISE ID       SUNNY     99  39  12 W10       30.07F HX  94
SEATTLE WA     MOSUNNY   87  56  34 NW9       30.10F
$$

*** WEATHER ACROSS MANITOBA...SASKATCHEWAN AND ONTARIO ***
                ***ONTARIO***

CITY           SKY/WX    TMP DP  RH WIND       PRES   REMARKS
GERALDTON      PTSUNNY   73  50  43 W12       29.83F
THUNDER BAY    PTSUNNY   72  59  64 SW12      29.85F
SIOUX LOOKOUT  PTSUNNY   73  48  40 SW14G22   29.78F
TORONTO        PTSUNNY   81  59  47 SE10      30.05F
BIG TROUT LK   LGT RAIN  57  54  88 W9        29.62F
PICKLE LAKE    MOSUNNY   73  43  33 SW18G28   29.71F
DRYDEN         MOSUNNY   75  50  41 SW24G30   29.77F
KENORA         TSTM      64  48  55 NW28      29.85R
$$
                *** MANITOBA***

CITY           SKY/WX    TMP DP  RH WIND       PRES   REMARKS
BRANDON        PTSUNNY   72  54  53 NW21G35   29.93R
DAUPHIN        MOSUNNY   72  43  35 N18G26    29.89F
ISLAND LAKE    PTSUNNY   55  48  76 W10       29.65S
PILOT MOUND      N/A     57  55  94 NW9         N/A
THE PAS        LGT RAIN N/A N/A N/A NW20        N/A
THOMPSON       LGT RAIN  50  48  93 NW13      29.67F
WINNIPEG       CLOUDY    59  57  94 NW8       29.88F
LYNN LAKE      CLOUDY    54  45  71 NW17G31   29.80S
CHURCHILL      LGT RAIN  43  43 100 N18       29.51S
GILLAM         PTSUNNY  N/A N/A N/A W16G22      N/A
$$
                ***SASKATCHEWAN***

CITY           SKY/WX    TMP DP  RH WIND       PRES   REMARKS
ESTEVAN        MOSUNNY   79  54  41 NW23G35   30.03S
KINDERSLEY     MOSUNNY   77  55  47 NW14G20   30.16S
LLOYDMINSTER   MOSUNNY   72  52  49 N12       30.17S
PRINCE ALBERT  MOSUNNY   70  41  35 NW23G29   30.05S
REGINA         MOSUNNY   73  52  46 N22G29    30.07R


USA.gov is the U.S. government's official web portal to all federal, state and local government web resources and services.